Time,TemperatureF,DewpointF,PressureIn,WindDirection,WindDirectionDegrees,WindSpeedMPH,WindSpeedGustMPH,Humidity,HourlyPrecipIn,Conditions,Clouds,dailyrainin,SoftwareType,DateUTC
2013-08-28 00:46:00,69.3,65.9,29.77,SSW,202,0.0,-999.0,89,-99.99,,,0.00,Acu-Link.com,2013-08-28 04:46:00,
2013-08-28 01:03:00,69.1,65.7,29.76,South,180,0.0,-999.0,89,-99.99,,,0.00,Acu-Link.com,2013-08-28 05:03:00,
2013-08-28 01:18:00,68.9,65.5,29.76,South,180,0.0,-999.0,89,-99.99,,,0.00,Acu-Link.com,2013-08-28 05:18:00,
2013-08-28 01:33:00,68.7,65.6,29.76,South,180,1.1,-999.0,90,-99.99,,,0.00,Acu-Link.com,2013-08-28 05:33:00,
2013-08-28 01:49:00,68.5,65.4,29.75,SSW,202,1.7,-999.0,90,-99.99,,,0.00,Acu-Link.com,2013-08-28 05:49:00,
2013-08-28 02:04:00,68.4,65.3,29.74,SW,225,0.0,-999.0,90,-99.99,,,0.00,Acu-Link.com,2013-08-28 06:04:00,
2013-08-28 02:19:00,68.5,65.4,29.74,SSW,202,2.7,-999.0,90,-99.99,,,0.00,Acu-Link.com,2013-08-28 06:19:00,
2013-08-28 02:34:00,68.5,65.4,29.74,SW,225,2.7,-999.0,90,-99.99,,,0.00,Acu-Link.com,2013-08-28 06:34:00,
2013-08-28 02:49:00,68.5,65.4,29.74,South,180,1.7,-999.0,90,-99.99,,,0.00,Acu-Link.com,2013-08-28 06:49:00,
2013-08-28 03:05:00,68.5,65.4,29.73,South,180,1.7,-999.0,90,-99.99,,,0.00,Acu-Link.com,2013-08-28 07:05:00,
2013-08-28 03:20:00,68.4,65.3,29.73,West,270,0.0,-999.0,90,-99.99,,,0.00,Acu-Link.com,2013-08-28 07:20:00,
2013-08-28 03:35:00,68.4,65.3,29.73,West,270,0.0,-999.0,90,-99.99,,,0.00,Acu-Link.com,2013-08-28 07:35:00,
2013-08-28 03:52:00,68.5,65.4,29.72,SW,225,0.0,-999.0,90,-99.99,,,0.00,Acu-Link.com,2013-08-28 07:52:00,
2013-08-28 04:10:00,68.4,65.3,29.72,South,180,0.0,-999.0,90,-99.99,,,0.00,Acu-Link.com,2013-08-28 08:10:00,
2013-08-28 04:26:00,68.4,65.3,29.72,West,270,0.0,-999.0,90,-99.99,,,0.00,Acu-Link.com,2013-08-28 08:26:00,
2013-08-28 04:42:00,68.4,65.3,29.72,SW,225,2.2,-999.0,90,-99.99,,,0.00,Acu-Link.com,2013-08-28 08:42:00,
2013-08-28 04:57:00,68.4,65.3,29.72,SSW,202,1.7,-999.0,90,-99.99,,,0.00,Acu-Link.com,2013-08-28 08:57:00,
2013-08-28 05:12:00,68.5,65.4,29.73,South,180,1.7,-999.0,90,-99.99,,,0.00,Acu-Link.com,2013-08-28 09:12:00,
2013-08-28 05:27:00,68.7,65.6,29.73,West,270,0.0,-999.0,90,-99.99,,,0.00,Acu-Link.com,2013-08-28 09:27:00,
2013-08-28 05:42:00,68.7,65.6,29.73,SSW,202,1.7,-999.0,90,-99.99,,,0.00,Acu-Link.com,2013-08-28 09:42:00,
2013-08-28 06:00:00,68.7,65.6,29.72,SW,225,1.7,-999.0,90,-99.99,,,0.00,Acu-Link.com,2013-08-28 10:00:00,
2013-08-28 06:15:00,68.7,65.6,29.73,SSW,202,0.0,-999.0,90,-99.99,,,0.00,Acu-Link.com,2013-08-28 10:15:00,
2013-08-28 06:31:00,68.7,65.6,29.74,SSW,202,3.7,-999.0,90,-99.99,,,0.00,Acu-Link.com,2013-08-28 10:31:00,
2013-08-28 06:48:00,68.5,65.4,29.74,SSE,157,0.0,-999.0,90,-99.99,,,0.00,Acu-Link.com,2013-08-28 10:48:00,
2013-08-28 07:04:00,68.4,65.3,29.74,West,270,1.7,-999.0,90,-99.99,,,0.00,Acu-Link.com,2013-08-28 11:04:00,
2013-08-28 07:19:00,68.2,65.1,29.75,South,180,2.2,-999.0,90,-99.99,,,0.00,Acu-Link.com,2013-08-28 11:19:00,
2013-08-28 07:34:00,68.2,65.1,29.75,West,270,0.0,-999.0,90,-99.99,,,0.00,Acu-Link.com,2013-08-28 11:34:00,
2013-08-28 07:50:00,68.4,65.3,29.75,WSW,247,0.0,-999.0,90,-99.99,,,0.00,Acu-Link.com,2013-08-28 11:50:00,
2013-08-28 08:05:00,68.7,65.6,29.75,SSW,202,1.7,-999.0,90,-99.99,,,0.00,Acu-Link.com,2013-08-28 12:05:00,
2013-08-28 08:21:00,69.3,66.2,29.76,SSW,202,1.1,-999.0,90,-99.99,,,0.00,Acu-Link.com,2013-08-28 12:21:00,
2013-08-28 08:38:00,69.4,66.3,29.76,West,270,0.0,-999.0,90,-99.99,,,0.00,Acu-Link.com,2013-08-28 12:38:00,
2013-08-28 08:53:00,70.0,66.6,29.76,SSW,202,0.0,-999.0,89,-99.99,,,0.00,Acu-Link.com,2013-08-28 12:53:00,
2013-08-28 09:08:00,70.7,67.3,29.76,SW,225,3.2,-999.0,89,-99.99,,,0.00,Acu-Link.com,2013-08-28 13:08:00,
2013-08-28 09:24:00,71.4,67.7,29.74,North,0,1.1,-999.0,88,-99.99,,,0.00,Acu-Link.com,2013-08-28 13:24:00,
2013-08-28 09:39:00,72.1,68.3,29.75,NNW,337,2.2,-999.0,88,-99.99,,,0.00,Acu-Link.com,2013-08-28 13:39:00,
2013-08-28 09:54:00,72.9,68.8,29.75,SSW,202,2.7,-999.0,87,-99.99,,,0.00,Acu-Link.com,2013-08-28 13:54:00,
2013-08-28 10:09:00,73.8,68.7,29.76,SW,225,2.7,-999.0,84,-99.99,,,0.00,Acu-Link.com,2013-08-28 14:09:00,
2013-08-28 10:26:00,74.3,69.1,29.76,NNE,22,2.2,-999.0,84,-99.99,,,0.00,Acu-Link.com,2013-08-28 14:26:00,
2013-08-28 10:43:00,75.9,69.3,29.77,South,180,2.2,-999.0,80,-99.99,,,0.00,Acu-Link.com,2013-08-28 14:43:00,
2013-08-28 11:00:00,75.7,69.4,29.77,ENE,67,2.2,-999.0,81,-99.99,,,0.00,Acu-Link.com,2013-08-28 15:00:00,
2013-08-28 11:22:00,76.6,69.2,29.76,East,90,3.7,-999.0,78,-99.99,,,0.00,Acu-Link.com,2013-08-28 15:22:00,
2013-08-28 12:26:00,78.8,71.0,29.76,SW,225,0.0,-999.0,77,-99.99,,,0.00,Acu-Link.com,2013-08-28 16:26:00,
2013-08-28 13:43:00,80.6,71.5,29.75,West,270,2.7,-999.0,74,-99.99,,,0.00,Acu-Link.com,2013-08-28 17:43:00,
2013-08-28 14:01:00,79.7,69.9,29.74,West,270,2.2,-999.0,72,-99.99,,,0.00,Acu-Link.com,2013-08-28 18:01:00,
2013-08-28 14:17:00,79.2,69.8,29.74,NW,315,1.1,-999.0,73,-99.99,,,0.00,Acu-Link.com,2013-08-28 18:17:00,
2013-08-28 14:33:00,80.1,68.6,29.73,East,90,2.2,-999.0,68,-99.99,,,0.00,Acu-Link.com,2013-08-28 18:33:00,
2013-08-28 15:10:00,80.1,68.6,29.72,NW,315,1.7,-999.0,68,-99.99,,,0.00,Acu-Link.com,2013-08-28 19:10:00,
2013-08-28 16:24:00,80.4,71.3,29.70,West,270,2.2,-999.0,74,-99.99,,,0.00,Acu-Link.com,2013-08-28 20:24:00,
2013-08-28 16:51:00,79.3,72.2,29.69,SW,225,2.7,-999.0,79,-99.99,,,0.00,Acu-Link.com,2013-08-28 20:51:00,
2013-08-28 17:06:00,79.7,72.2,29.69,SSW,202,1.7,-999.0,78,-99.99,,,0.00,Acu-Link.com,2013-08-28 21:06:00,
2013-08-28 17:24:00,78.4,70.6,29.69,SSW,202,2.7,-999.0,77,-99.99,,,0.00,Acu-Link.com,2013-08-28 21:24:00,
2013-08-28 17:48:00,78.4,71.0,29.69,SSW,202,3.2,-999.0,78,-99.99,,,0.00,Acu-Link.com,2013-08-28 21:48:00,
2013-08-28 18:04:00,77.4,71.5,29.68,SSW,202,2.7,-999.0,82,-99.99,,,0.00,Acu-Link.com,2013-08-28 22:04:00,
2013-08-28 18:20:00,77.2,71.3,29.69,SSW,202,2.7,-999.0,82,-99.99,,,0.00,Acu-Link.com,2013-08-28 22:20:00,
2013-08-28 18:39:00,76.8,71.6,29.68,SSW,202,2.7,-999.0,84,-99.99,,,0.00,Acu-Link.com,2013-08-28 22:39:00,
2013-08-28 18:55:00,76.5,71.3,29.68,SW,225,2.7,-999.0,84,-99.99,,,0.00,Acu-Link.com,2013-08-28 22:55:00,
2013-08-28 19:12:00,76.1,71.3,29.68,SW,225,2.2,-999.0,85,-99.99,,,0.00,Acu-Link.com,2013-08-28 23:12:00,
2013-08-28 19:27:00,76.1,71.3,29.69,SW,225,0.0,-999.0,85,-99.99,,,0.00,Acu-Link.com,2013-08-28 23:27:00,
2013-08-28 19:45:00,75.7,71.2,29.69,SSW,202,2.2,-999.0,86,-99.99,,,0.00,Acu-Link.com,2013-08-28 23:45:00,
2013-08-28 20:01:00,75.2,71.1,29.69,SSW,202,2.2,-999.0,87,-99.99,,,0.00,Acu-Link.com,2013-08-29 00:01:00,
2013-08-28 20:16:00,74.8,70.7,29.69,SSW,202,2.2,-999.0,87,-99.99,,,0.00,Acu-Link.com,2013-08-29 00:16:00,
2013-08-28 20:31:00,74.7,70.6,29.69,SSW,202,0.0,-999.0,87,-99.99,,,0.00,Acu-Link.com,2013-08-29 00:31:00,
2013-08-28 20:46:00,73.9,70.4,29.69,SSW,202,0.0,-999.0,89,-99.99,,,0.00,Acu-Link.com,2013-08-29 00:46:00,
2013-08-28 21:03:00,73.8,70.3,29.69,North,0,0.0,-999.0,89,-99.99,,,0.00,Acu-Link.com,2013-08-29 01:03:00,
2013-08-28 21:55:00,71.6,68.2,29.70,NNW,337,0.0,-999.0,89,-99.99,,,0.00,Acu-Link.com,2013-08-29 01:55:00,
2013-08-28 22:16:00,71.4,68.0,29.70,South,180,0.0,-999.0,89,-99.99,,,0.00,Acu-Link.com,2013-08-29 02:16:00,
2013-08-28 22:37:00,71.4,68.0,29.70,South,180,0.0,-999.0,89,-99.99,,,0.00,Acu-Link.com,2013-08-29 02:37:00,
2013-08-28 22:54:00,70.7,67.3,29.70,ENE,67,0.0,-999.0,89,-99.99,,,0.00,Acu-Link.com,2013-08-29 02:54:00,
2013-08-28 23:10:00,70.9,67.5,29.69,WNW,292,0.0,-999.0,89,-99.99,,,0.00,Acu-Link.com,2013-08-29 03:10:00,
2013-08-28 23:26:00,70.9,67.5,29.69,South,180,0.0,-999.0,89,-99.99,,,0.00,Acu-Link.com,2013-08-29 03:26:00,
2013-08-28 23:43:00,70.9,67.5,29.69,ESE,112,0.0,-999.0,89,-99.99,,,0.00,Acu-Link.com,2013-08-29 03:43:00,